This demonstration page uses our WeatherBlox Daily Observations layout. Learn more.

Left ArrowRight Arrow

39.01783, -85.05884

Hourly Observations for August 6, 2015

Temp ( °F °C ) Dew Point ( °F °C ) Humidity (%) Winds ( mph kmh ) Pressure ( in mb ) Visibility ( mi km ) Precip ( " mm )
12:52 am 00:52 Cloudy 74 23.3 62 16.7 67 67 E 8 13 29.93 1014 10 16 N/A
1:52 am 01:52 Cloudy 74 23.3 61 16.1 64 64 E 10 17 29.91 1013 10 16 N/A
2:52 am 02:52 Cloudy 73 22.8 61 16.1 66 66 ESE 9 15 29.91 1013 10 16 N/A
3:52 am 03:52 Cloudy with Light Rain 71 21.7 64 17.8 79 79 ESE 9 15 29.89 1012 9 14 N/A
4:52 am 04:52 Cloudy with Light Rain 70 21.1 65 18.3 84 84 E 8 13 29.90 1013 10 16 N/A
5:42 am 05:42 Cloudy with Light Rain 70 21 64 18 83 83 E 9 15 29.91 1013 8 13 N/A
5:52 am 05:52 Cloudy with Light Rain 69 20.6 65 18.3 87 87 E 8 13 29.90 1013 6 10 0.02 0.51
6:52 am 06:52 Cloudy with Light Rain 68 20 66 18.9 93 93 E 7 11 29.91 1013 6 10 0.06 1.52
7:00 am 07:00 Cloudy with Heavy Rain 68 20 66 19 94 94 E 8 13 29.91 1013 3 4 N/A
7:19 am 07:19 Cloudy with Light Rain 66 19 66 19 100 100 E 10 17 29.88 1012 3 5 0.10 2.54
7:52 am 07:52 Cloudy 67 19.4 66 18.9 97 97 E 13 20 29.90 1012 7 11 0.10 2.54
8:52 am 08:52 Cloudy with Rain 66 18.9 65 18.3 96 96 E 10 17 29.91 1013 4 6 0.06 1.52
9:24 am 09:24 Cloudy with Light Rain 66 19 64 18 94 94 E 15 24 29.91 1013 3 4 N/A
9:26 am 09:26 Cloudy with Light Rain 66 19 64 18 94 94 E 14 22 29.91 1013 3 4 N/A
9:49 am 09:49 Cloudy with Rain 64 18 64 18 100 100 E 13 20 29.91 1013 2 3 0.15 3.81
9:52 am 09:52 Cloudy with Rain 65 18.3 65 18.3 100 100 E 13 20 29.91 1013 2 3 0.16 4.06
10:23 am 10:23 Cloudy with Light Rain 64 18 64 18 100 100 E 13 20 29.91 1013 4 6 0.03 0.76
10:38 am 10:38 Cloudy with Heavy Rain 64 18 64 18 100 100 E 9 15 29.91 1013 2 3 N/A
10:52 am 10:52 Cloudy with Rain 65 18.3 65 18.3 100 100 E 13 20 29.90 1012 2 3 0.16 4.06
10:57 am 10:57 Cloudy with Rain 64 18 64 18 100 100 E 14 22 29.88 1012 3 5 0.02 0.51
11:04 am 11:04 Cloudy with Light Rain 64 18 64 18 100 100 E 13 20 29.88 1012 4 6 N/A
11:52 am 11:52 Cloudy with Light Rain 66 18.9 65 18.3 96 96 E 15 24 29.89 1012 4 6 0.08 2.03
12:52 pm 12:52 Cloudy with Light Rain 66 18.9 65 18.3 96 96 E 14 22 29.88 1012 9 14 0.02 0.51
1:52 pm 13:52 Cloudy with Mist and Fog 66 18.9 66 18.9 100 100 E 14 22 29.87 1011 6 10 N/A
2:45 pm 14:45 Cloudy with Light Rain 66 19 64 18 94 94 E 14 22 29.88 1012 2 3 N/A
2:52 pm 14:52 Cloudy with Light Rain 66 18.9 65 18.3 96 96 E 12 19 29.87 1011 2 3 0.01 0.25
3:52 pm 15:52 Cloudy with Mist and Fog 66 18.9 65 18.3 96 96 ENE 15 24 29.85 1011 5 8 0.02 0.51
4:52 pm 16:52 Cloudy with Drizzle 66 18.9 65 18.3 96 96 ENE 16 26 29.85 1011 3 4 N/A
5:37 pm 17:37 Cloudy with Mist and Fog 66 19 64 18 94 94 NE 13 20 29.85 1011 3 5 N/A
5:52 pm 17:52 Cloudy with Drizzle 66 18.9 65 18.3 96 96 NE 12 19 29.84 1011 3 5 N/A
6:52 pm 18:52 Cloudy with Drizzle 66 18.9 65 18.3 96 96 NE 14 22 29.84 1011 4 6 N/A
7:52 pm 19:52 Cloudy 66 18.9 63 17.2 90 90 NE 13 20 29.85 1011 8 13 N/A
8:52 pm 20:52 Cloudy with Mist and Fog 65 18.3 63 17.2 93 93 ENE 12 19 29.85 1011 6 10 N/A
9:52 pm 21:52 Cloudy 65 18.3 62 16.7 90 90 NE 15 24 29.84 1011 10 16 N/A
10:15 pm 22:15 Partly Cloudy 64 18 61 16 88 88 ENE 12 19 29.85 1011 10 16 N/A
10:52 pm 22:52 Partly Cloudy 65 18.3 61 16.1 87 87 NE 10 17 29.86 1011 10 16 N/A
11:22 pm 23:22 Cloudy 64 18 61 16 88 88 NE 8 13 29.88 1012 10 16 N/A
11:52 pm 23:52 Cloudy 65 18.3 60 15.6 84 84 NNE 8 13 29.88 1012 10 16 N/A

Powered by AerisWeather